sat.trackr.live / text

‹ back to catalog

STARLINK-34933

NORAD 65253 · 2025-179U

PAYLOAD ACTIVE UNKNOWN

§ Identity

Operator
Country
US
Launch date
2025-08-18
Launch site
AFWTR
Launch vehicle
Mass (kg)
RCS (m²)

Purposes: comms

External: N2YO · Heavens-Above · Gunter

§ Orbital elements

Epoch: 2026-09-20T14:17:58.379712Z

Period
93.90 min
Inclination
97.2827°
Eccentricity
0.0000364
Mean motion
15.33464745 rev/d
Perigee alt
465.2 km
Apogee alt
465.7 km
Semi-major
6,843.6 km
B*
5.5909e-4
RAAN
302.8571°
Arg perigee
358.7985°
Mean anomaly
1.3257°
Rev number
6,132

§ Raw data

STARLINK-349331 65253U 25179U   26263.59581458  .00018029  00000+0  55909-3 0  99992 65253  97.2827 302.8571 0000364 358.7985   1.3257 15.33464745 61324

JSON: /api/v1/satellites/65253 · /tle

For live sub-satellite position, see the globe view (requires WebGL).

§ Visibility from observer

Set your observer location to see the next 7 days of passes ≥ 10°. The values pass through the URL so the page stays shareable.

No JS? Fill the form by hand. The geolocation button needs JavaScript.